HXA2513 VGHS-ZULS

Flight info

Callsign HXA2513
Flight time 1h 13m
Altitude 24000
Route TEGAK1A TEGAK W3 NILIT/N0465F360 W3 SDP DCT BGD/K0845S1130 DCT RKZ
Aircraft A320/M-SDE3FGHIRWY/LB1

Departure

Time 2026-04-22 19:31
Airport Hazrat Shahjalal International Airport (VGHS)

Arrival

Time 2026-04-22 20:45
Airport Lhasa Gonggar International Airport (ZULS)
Time Latitude Longitude Altitude Speed Heading
2026-04-22 19:10 23.84792 90.40393 36 ft 0 kts 54°
2026-04-22 19:23 23.84792 90.40392 36 ft 2 kts 54°
2026-04-22 19:23 23.84776 90.40371 36 ft 4 kts 50°
2026-04-22 19:23 23.84759 90.40350 35 ft 4 kts 42°
2026-04-22 19:23 23.84737 90.40332 36 ft 4 kts 19°
2026-04-22 19:24 23.84717 90.40331 36 ft 1 kts 324°
2026-04-22 19:24 23.84713 90.40334 35 ft 0 kts 324°
2026-04-22 19:25 23.84725 90.40325 34 ft 10 kts 324°
2026-04-22 19:26 23.84839 90.40234 35 ft 24 kts 323°
2026-04-22 19:26 23.84992 90.40153 36 ft 25 kts 333°
2026-04-22 19:26 23.85134 90.40039 36 ft 23 kts 324°
2026-04-22 19:26 23.85169 90.39967 36 ft 10 kts 244°
2026-04-22 19:27 23.85133 90.39910 36 ft 8 kts 234°
2026-04-22 19:27 23.85108 90.39858 35 ft 10 kts 264°
2026-04-22 19:27 23.85195 90.39764 36 ft 26 kts 323°
2026-04-22 19:27 23.85348 90.39642 36 ft 28 kts 324°
2026-04-22 19:28 23.85511 90.39513 35 ft 30 kts 324°
2026-04-22 19:28 23.85681 90.39377 36 ft 31 kts 323°
2026-04-22 19:28 23.85750 90.39240 35 ft 19 kts 235°
2026-04-22 19:28 23.85665 90.39119 34 ft 21 kts 233°
2026-04-22 19:29 23.85574 90.38984 35 ft 23 kts 233°
2026-04-22 19:29 23.85481 90.38873 33 ft 7 kts 176°
2026-04-22 19:29 23.85456 90.38890 34 ft 0 kts 145°
2026-04-22 19:30 23.85388 90.38943 35 ft 43 kts 144°
2026-04-22 19:30 23.84942 90.39297 36 ft 112 kts 144°
2026-04-22 19:31 23.84164 90.39918 54 ft 161 kts 143°
2026-04-22 19:31 23.83263 90.40658 737 ft 162 kts 144°
2026-04-22 19:31 23.82358 90.41392 1495 ft 163 kts 146°
2026-04-22 19:31 23.81431 90.42141 2089 ft 174 kts 147°
2026-04-22 19:32 23.80297 90.42770 2431 ft 196 kts 163°
2026-04-22 19:32 23.78878 90.43035 2774 ft 219 kts 180°
2026-04-22 19:32 23.77295 90.42763 3176 ft 244 kts 200°
2026-04-22 19:32 23.75771 90.41798 4055 ft 263 kts 221°
2026-04-22 19:33 23.74625 90.40217 5227 ft 270 kts 244°
2026-04-22 19:33 23.74132 90.38230 6457 ft 275 kts 269°
2026-04-22 19:33 23.74406 90.36177 7814 ft 274 kts 290°
2026-04-22 19:33 23.75380 90.34408 9271 ft 274 kts 311°
2026-04-22 19:34 23.76922 90.33166 10571 ft 283 kts 328°
2026-04-22 19:34 23.78690 90.32032 11192 ft 306 kts 318°
2026-04-22 19:34 23.80405 90.30497 11680 ft 333 kts 323°
2026-04-22 19:34 23.82531 90.29320 12366 ft 351 kts 335°
2026-04-22 19:35 23.84871 90.28463 13025 ft 358 kts 340°
2026-04-22 19:35 23.87292 90.27745 13691 ft 363 kts 341°
2026-04-22 19:35 23.88908 90.27257 14086 ft 364 kts 338°
2026-04-22 19:35 23.91930 90.25626 14837 ft 363 kts 321°
2026-04-22 19:36 23.93732 90.23759 15397 ft 364 kts 308°
2026-04-22 19:36 23.95194 90.21484 15957 ft 367 kts 303°
2026-04-22 19:36 23.96636 90.19165 16511 ft 371 kts 303°
2026-04-22 19:36 23.98106 90.16828 17053 ft 375 kts 304°
2026-04-22 19:37 23.99601 90.14477 17572 ft 379 kts 304°
2026-04-22 19:37 24.01121 90.12103 18097 ft 383 kts 304°
2026-04-22 19:37 24.02625 90.09759 18535 ft 386 kts 304°
2026-04-22 19:37 24.04170 90.07349 19003 ft 389 kts 303°
2026-04-22 19:38 24.05728 90.04913 19478 ft 391 kts 303°
2026-04-22 19:38 24.07294 90.02465 19944 ft 394 kts 303°
2026-04-22 19:38 24.08313 90.00865 20196 ft 394 kts 302°
2026-04-22 19:38 24.09841 89.98350 20572 ft 399 kts 303°
2026-04-22 19:39 24.11424 89.95836 20974 ft 403 kts 303°
2026-04-22 19:39 24.13043 89.93325 21417 ft 406 kts 303°
2026-04-22 19:39 24.14688 89.90797 21875 ft 408 kts 303°
2026-04-22 19:39 24.16336 89.88261 22319 ft 410 kts 303°
2026-04-22 19:40 24.17989 89.85695 22770 ft 413 kts 302°
2026-04-22 19:40 24.19639 89.83110 23204 ft 415 kts 302°
2026-04-22 19:40 24.21290 89.80509 23582 ft 417 kts 302°
2026-04-22 19:40 24.22925 89.77927 23946 ft 418 kts 302°
2026-04-22 19:41 24.24584 89.75305 24320 ft 418 kts 302°
2026-04-22 19:41 24.26246 89.72681 24703 ft 420 kts 302°
2026-04-22 19:41 24.27909 89.70056 25092 ft 420 kts 301°
2026-04-22 19:41 24.29579 89.67416 25468 ft 421 kts 301°
2026-04-22 19:42 24.31280 89.64797 25839 ft 423 kts 305°
2026-04-22 19:42 24.33308 89.62433 26199 ft 429 kts 314°
2026-04-22 19:42 24.35706 89.60460 26547 ft 435 kts 323°
2026-04-22 19:42 24.38424 89.58926 26888 ft 442 kts 330°
2026-04-22 19:43 24.44064 89.56194 27519 ft 445 kts 331°
2026-04-22 19:43 24.46902 89.54817 27836 ft 446 kts 330°
2026-04-22 19:43 24.49740 89.53435 28129 ft 447 kts 330°
2026-04-22 19:44 24.52587 89.52045 28441 ft 449 kts 330°
2026-04-22 19:44 24.55412 89.50669 28814 ft 448 kts 330°
2026-04-22 19:44 24.58251 89.49284 29273 ft 446 kts 330°
2026-04-22 19:44 24.61076 89.47900 29737 ft 443 kts 330°
2026-04-22 19:45 24.63881 89.46528 30130 ft 440 kts 329°
2026-04-22 19:45 24.66679 89.45159 30387 ft 442 kts 329°
2026-04-22 19:45 24.69499 89.43773 30504 ft 446 kts 329°
2026-04-22 19:45 24.72340 89.42376 30634 ft 450 kts 329°
2026-04-22 19:46 24.75208 89.40967 30839 ft 452 kts 329°
2026-04-22 19:46 24.78080 89.39561 31142 ft 451 kts 329°
2026-04-22 19:46 24.80942 89.38159 31480 ft 449 kts 328°
2026-04-22 19:46 24.83797 89.36765 31842 ft 447 kts 328°
2026-04-22 19:47 24.86633 89.35379 32213 ft 444 kts 327°
2026-04-22 19:47 24.89448 89.34000 32592 ft 442 kts 327°
2026-04-22 19:47 24.91313 89.33087 32841 ft 440 kts 327°
2026-04-22 19:47 24.95009 89.31274 33349 ft 437 kts 326°
2026-04-22 19:48 24.97785 89.29908 33739 ft 434 kts 325°
2026-04-22 19:48 25.00541 89.28551 34063 ft 432 kts 325°
2026-04-22 19:48 25.03294 89.27195 34329 ft 433 kts 326°
2026-04-22 19:48 25.06013 89.25853 34484 ft 435 kts 326°
2026-04-22 19:49 25.08778 89.24488 34706 ft 436 kts 326°
2026-04-22 19:49 25.11544 89.23122 34964 ft 435 kts 326°
2026-04-22 19:49 25.14317 89.21758 35242 ft 434 kts 326°
2026-04-22 19:49 25.17078 89.20401 35511 ft 434 kts 325°
2026-04-22 19:50 25.19835 89.19043 35714 ft 434 kts 325°
2026-04-22 19:50 25.22593 89.17683 35767 ft 433 kts 325°
2026-04-22 19:50 25.28062 89.14982 35781 ft 433 kts 325°
2026-04-22 19:51 25.33560 89.12253 35774 ft 433 kts 325°
2026-04-22 19:51 25.39062 89.09527 35779 ft 433 kts 325°
2026-04-22 19:52 25.44563 89.06803 35780 ft 433 kts 325°
2026-04-22 19:52 25.50034 89.04086 35774 ft 433 kts 325°
2026-04-22 19:53 25.55552 89.01344 35779 ft 433 kts 325°
2026-04-22 19:53 25.61065 88.98605 35782 ft 433 kts 325°
2026-04-22 19:54 25.66524 88.95889 35802 ft 433 kts 325°
2026-04-22 19:54 25.72033 88.93142 35794 ft 434 kts 325°
2026-04-22 19:55 25.76600 88.90831 35784 ft 430 kts 322°
2026-04-22 19:55 25.81795 88.87602 35783 ft 427 kts 320°
2026-04-22 19:56 25.86976 88.84358 35773 ft 427 kts 320°
2026-04-22 19:56 25.92154 88.81110 35766 ft 428 kts 320°
2026-04-22 19:57 25.97339 88.77849 35783 ft 429 kts 320°
2026-04-22 19:57 26.02539 88.74585 35766 ft 430 kts 321°
2026-04-22 19:58 26.07752 88.71308 35764 ft 431 kts 321°
2026-04-22 19:58 26.12942 88.68036 35763 ft 431 kts 320°
2026-04-22 20:00 26.31257 88.56471 35805 ft 433 kts 321°
2026-04-22 20:01 26.36500 88.53155 35793 ft 433 kts 321°
2026-04-22 20:01 26.41747 88.49837 35789 ft 433 kts 321°
2026-04-22 20:02 26.46987 88.46509 35779 ft 434 kts 321°
2026-04-22 20:02 26.52202 88.43196 35789 ft 434 kts 321°
2026-04-22 20:03 26.57443 88.39867 35807 ft 433 kts 322°
2026-04-22 20:03 26.62674 88.36540 35794 ft 432 kts 322°
2026-04-22 20:04 26.68396 88.34154 35789 ft 455 kts 343°
2026-04-22 20:04 26.71607 88.34002 35787 ft 470 kts 356°
2026-04-22 20:04 26.74874 88.34667 35824 ft 486 kts
2026-04-22 20:05 26.81355 88.36925 35818 ft 488 kts
2026-04-22 20:05 26.87848 88.39189 35874 ft 488 kts 10°
2026-04-22 20:06 26.94336 88.41457 35886 ft 488 kts
2026-04-22 20:06 27.00792 88.43701 35886 ft 483 kts
2026-04-22 20:07 27.07223 88.45920 35891 ft 483 kts
2026-04-22 20:07 27.13609 88.48131 35925 ft 483 kts
2026-04-22 20:08 27.20025 88.50372 35945 ft 483 kts 11°
2026-04-22 20:08 27.26438 88.52626 35978 ft 482 kts 11°
2026-04-22 20:09 27.32835 88.54863 35964 ft 480 kts 10°
2026-04-22 20:09 27.39216 88.57091 35997 ft 480 kts 10°
2026-04-22 20:10 27.45548 88.59303 35988 ft 480 kts 10°
2026-04-22 20:10 27.51926 88.61540 36044 ft 480 kts 12°
2026-04-22 20:11 27.58307 88.63791 36046 ft 479 kts 12°
2026-04-22 20:11 27.64673 88.66038 36086 ft 480 kts 11°
2026-04-22 20:12 27.71053 88.68280 36135 ft 480 kts 11°
2026-04-22 20:12 27.77443 88.70526 36147 ft 480 kts 12°
2026-04-22 20:13 27.83796 88.72766 36193 ft 477 kts 12°
2026-04-22 20:13 27.90077 88.74995 36185 ft 475 kts 12°
2026-04-22 20:14 27.96390 88.77227 36211 ft 474 kts 12°
2026-04-22 20:14 28.02681 88.79448 36205 ft 474 kts 12°
2026-04-22 20:15 28.08992 88.81685 36242 ft 474 kts 13°
2026-04-22 20:15 28.15247 88.83919 36233 ft 473 kts 13°
2026-04-22 20:16 28.21542 88.86159 36222 ft 472 kts 13°
2026-04-22 20:16 28.27792 88.88378 36218 ft 472 kts 13°
2026-04-22 20:17 28.34058 88.90597 36220 ft 471 kts 13°
2026-04-22 20:17 28.40328 88.92832 36225 ft 470 kts 13°
2026-04-22 20:18 28.46564 88.95070 36199 ft 470 kts 13°
2026-04-22 20:18 28.52773 88.97295 36196 ft 470 kts 14°
2026-04-22 20:19 28.59010 88.99536 36191 ft 470 kts 13°
2026-04-22 20:19 28.65262 89.01771 36191 ft 471 kts 13°
2026-04-22 20:20 28.71517 89.04011 36197 ft 470 kts 14°
2026-04-22 20:20 28.77753 89.06259 36200 ft 469 kts 14°
2026-04-22 20:21 28.83951 89.08496 36179 ft 466 kts 14°
2026-04-22 20:21 28.90128 89.10721 36161 ft 465 kts 14°
2026-04-22 20:22 28.96304 89.12946 36177 ft 465 kts 14°
2026-04-22 20:22 29.02423 89.15159 36154 ft 461 kts 14°
2026-04-22 20:23 29.08429 89.17339 36131 ft 448 kts 14°
2026-04-22 20:23 29.14366 89.19486 36133 ft 446 kts 14°
2026-04-22 20:24 29.20281 89.21639 36131 ft 446 kts 14°
2026-04-22 20:24 29.26164 89.23787 36158 ft 445 kts 17°
2026-04-22 20:24 29.28957 89.25336 36143 ft 449 kts 31°
2026-04-22 20:25 29.31346 89.27671 36138 ft 455 kts 46°
2026-04-22 20:25 29.33121 89.30687 36134 ft 462 kts 62°
2026-04-22 20:25 29.34110 89.34203 36132 ft 468 kts 78°
2026-04-22 20:25 29.34209 89.37944 36125 ft 474 kts 94°
2026-04-22 20:26 29.33769 89.41696 36136 ft 475 kts 96°
2026-04-22 20:26 29.33137 89.46891 36136 ft 476 kts 96°
2026-04-22 20:27 29.32218 89.54412 36153 ft 477 kts 96°
2026-04-22 20:27 29.31295 89.61950 36155 ft 478 kts 95°
2026-04-22 20:28 29.30371 89.69507 36173 ft 479 kts 96°
2026-04-22 20:28 29.29443 89.77055 36179 ft 478 kts 96°
2026-04-22 20:29 29.28513 89.84558 36176 ft 478 kts 96°
2026-04-22 20:29 29.27580 89.92111 35905 ft 479 kts 96°
2026-04-22 20:29 29.27113 89.95890 35659 ft 478 kts 95°
2026-04-22 20:30 29.26645 89.99654 35434 ft 477 kts 96°
2026-04-22 20:30 29.26172 90.03429 35200 ft 478 kts 95°
2026-04-22 20:30 29.25699 90.07200 34964 ft 478 kts 95°
2026-04-22 20:30 29.25232 90.10916 34731 ft 477 kts 95°
2026-04-22 20:31 29.24757 90.14681 34449 ft 477 kts 95°
2026-04-22 20:31 29.24279 90.18454 33433 ft 482 kts 95°
2026-04-22 20:31 29.23795 90.22270 32401 ft 486 kts 95°
2026-04-22 20:31 29.23308 90.26121 31276 ft 492 kts 94°
2026-04-22 20:32 29.22817 90.30015 30226 ft 495 kts 94°
2026-04-22 20:32 29.22320 90.33940 29022 ft 498 kts 94°
2026-04-22 20:32 29.21818 90.37870 27806 ft 501 kts 95°
2026-04-22 20:32 29.21310 90.41800 26614 ft 494 kts 95°
2026-04-22 20:33 29.20806 90.45682 25204 ft 489 kts 95°
2026-04-22 20:33 29.20315 90.49454 24567 ft 475 kts 95°
2026-04-22 20:33 29.19836 90.53138 24334 ft 459 kts 95°
2026-04-22 20:33 29.19369 90.56694 24215 ft 442 kts 95°
2026-04-22 20:34 29.18920 90.60109 24100 ft 424 kts 95°
2026-04-22 20:34 29.18494 90.63379 23961 ft 408 kts 94°
2026-04-22 20:34 29.18089 90.66534 23851 ft 394 kts 94°
2026-04-22 20:34 29.17695 90.69581 23737 ft 380 kts 94°
2026-04-22 20:35 29.17312 90.72526 23613 ft 368 kts 94°
2026-04-22 20:35 29.16939 90.75369 23292 ft 355 kts 94°
2026-04-22 20:35 29.16590 90.78132 22764 ft 346 kts 93°
2026-04-22 20:35 29.16395 90.80822 22437 ft 340 kts 88°
2026-04-22 20:36 29.16511 90.83510 21963 ft 337 kts 77°
2026-04-22 20:36 29.17108 90.86053 21682 ft 328 kts 64°
2026-04-22 20:36 29.18182 90.88318 21323 ft 321 kts 50°
2026-04-22 20:36 29.19654 90.90205 20949 ft 315 kts 38°
2026-04-22 20:37 29.21419 90.91680 20500 ft 314 kts 28°
2026-04-22 20:37 29.23410 90.92743 19851 ft 321 kts 16°
2026-04-22 20:37 29.25543 90.93416 19448 ft 320 kts 13°
2026-04-22 20:37 29.27752 90.94017 18640 ft 329 kts
2026-04-22 20:38 29.30035 90.93977 17774 ft 330 kts 348°
2026-04-22 20:38 29.32175 90.93084 17141 ft 323 kts 328°
2026-04-22 20:38 29.33873 90.91550 17073 ft 301 kts 313°
2026-04-22 20:38 29.35180 90.89777 17014 ft 283 kts 310°
2026-04-22 20:39 29.36416 90.88074 16944 ft 273 kts 309°
2026-04-22 20:39 29.37318 90.86205 16641 ft 269 kts 284°
2026-04-22 20:39 29.37407 90.84087 16266 ft 264 kts 267°
2026-04-22 20:39 29.37224 90.82022 15956 ft 257 kts 263°
2026-04-22 20:40 29.36931 90.80054 15669 ft 244 kts 259°
2026-04-22 20:40 29.36544 90.78204 15362 ft 232 kts 255°
2026-04-22 20:40 29.35827 90.76624 15091 ft 217 kts 230°
2026-04-22 20:40 29.34694 90.75616 14832 ft 202 kts 209°
2026-04-22 20:41 29.33372 90.75213 14494 ft 192 kts 185°
2026-04-22 20:41 29.32102 90.75380 14299 ft 184 kts 164°
2026-04-22 20:41 29.30994 90.76045 14083 ft 179 kts 142°
2026-04-22 20:41 29.30171 90.77081 13879 ft 175 kts 122°
2026-04-22 20:42 29.29703 90.78351 13683 ft 173 kts 102°
2026-04-22 20:42 29.29617 90.79712 13491 ft 171 kts 89°
2026-04-22 20:42 29.29638 90.81073 13274 ft 170 kts 89°
2026-04-22 20:42 29.29661 90.82423 12993 ft 169 kts 89°
2026-04-22 20:43 29.29682 90.83764 12710 ft 168 kts 89°
2026-04-22 20:43 29.29713 90.85101 12426 ft 168 kts 88°
2026-04-22 20:43 29.29736 90.86436 12164 ft 167 kts 89°
2026-04-22 20:43 29.29761 90.87769 11913 ft 167 kts 88°
2026-04-22 20:44 29.29771 90.88648 11745 ft 166 kts 89°
2026-04-22 20:44 29.29788 90.89960 11603 ft 159 kts 89°
2026-04-22 20:44 29.29806 90.91053 11589 ft 100 kts 89°
2026-04-22 20:44 29.29815 90.91642 11590 ft 56 kts 89°
2026-04-22 20:45 29.29806 90.91981 11571 ft 33 kts 114°
2026-04-22 20:45 29.29728 90.92157 11577 ft 13 kts 115°
2026-04-22 20:45 29.29720 90.92175 11564 ft 7 kts 127°
2026-04-22 20:45 29.29655 90.92102 11573 ft 18 kts 267°
2026-04-22 20:46 29.29651 90.91802 11571 ft 19 kts 269°
2026-04-22 20:46 29.29648 90.91644 11585 ft 20 kts 269°
2026-04-22 20:46 29.29645 90.91482 11584 ft 21 kts 269°
2026-04-22 20:47 29.29644 90.91313 11585 ft 22 kts 269°
2026-04-22 20:47 29.29641 90.91141 11591 ft 22 kts 269°
2026-04-22 20:47 29.29638 90.90958 11591 ft 23 kts 269°
2026-04-22 20:47 29.29635 90.90775 11586 ft 23 kts 269°
2026-04-22 20:48 29.29632 90.90591 11592 ft 24 kts 269°
2026-04-22 20:48 29.29628 90.90404 11586 ft 24 kts 268°
2026-04-22 20:48 29.29624 90.90216 11582 ft 24 kts 269°
2026-04-22 20:48 29.29620 90.90050 11589 ft 18 kts 263°
2026-04-22 20:49 29.29541 90.89998 11580 ft 13 kts 225°
2026-04-22 20:49 29.29523 90.89895 11580 ft 14 kts 270°
2026-04-22 20:49 29.29523 90.89782 11592 ft 15 kts 268°
2026-04-22 20:49 29.29520 90.89663 11580 ft 15 kts 268°
2026-04-22 20:50 29.29463 90.89614 11590 ft 12 kts 180°
2026-04-22 20:50 29.29381 90.89614 11591 ft 8 kts 181°
2026-04-22 20:50 29.29369 90.89614 11594 ft 0 kts 181°